Location: Fort Wayne
(41.1310°N, 85.1290°W)
Time: 07:33:31
(UTC-05:00)

Meteor 2-9 Rocket - Visible Passes

Search period start: 24 February 2017 00:00
Search period end: 06 March 2017 00:00
Orbit: 792 x 895 km, 81.3° (Epoch: 23 February)

Date Brightness Start Highest point End Pass type
(mag) Time Alt. Az. Time Alt. Az. Time Alt. Az.
01 Mar 6.9 22:20:51 11° N 22:20:51 11° N 22:21:08 10° N visible
02 Mar 6.6 22:05:54 16° N 22:05:54 16° N 22:07:07 10° N visible
03 Mar 6.2 20:08:56 12° NE 20:08:56 12° NE 20:09:24 10° NE visible
03 Mar 6.0 21:50:41 24° NNW 21:50:41 24° NNW 21:53:05 10° N visible
04 Mar 7.0 06:38:54 10° NNE 06:42:42 17° ENE 06:46:27 10° ESE visible
04 Mar 5.8 19:53:15 16° ENE 19:53:15 16° ENE 19:55:02 10° NE visible
04 Mar 5.2 21:34:57 42° NNW 21:34:57 42° NNW 21:39:02 10° N visible
05 Mar 7.1 06:25:07 10° NNE 06:28:29 15° ENE 06:31:49 10° E visible
05 Mar 5.6 19:36:04 16° E 19:37:07 17° E 19:40:37 10° NE visible
05 Mar 4.6 21:17:29 43° SW 21:19:13 63° WNW 21:24:58 10° N visible
